Regional Weather Roundup
Issued by NWS

Home | Current Version | Previous Version | Text Only | Print | Product List | Glossary Off
Versions: 1 2 3 4 5 6 7 8 9 10 11 12 13 14 15 16 17 18 19 20 21 22 23 24 25 26 27 28 29 30 31 32 33 34 35 36 37 38 39 40 41 42 43 44 45 46 47 48 49 50

000
ASUS43 KOAX 200802
RWRNE

WEATHER ROUNDUP FOR NEBRASKA
NATIONAL WEATHER SERVICE OMAHA NE
200 AM CST SAT DEC 20 2014

NOTES: SATELLITE DATA IS BEING USED TO AUGMENT CLOUD COVER ABOVE
       12000 FEET.
       "FAIR" INDICATES FEW OR NO CLOUDS BELOW 12,000 FEET WITH NO
       SIGNIFICANT WEATHER AND/OR OBSTRUCTIONS TO VISIBILITY.

  * THESE STATIONS DO NOT REPORT WEATHER SUCH AS RAIN...SNOW OR FOG.

NEZ001>004-019>022-054>056-200900-
NEBRASKA PANHANDLE

CITY           SKY/WX    TMP DP  RH WIND       PRES   REMARKS
SCOTTSBLUFF    PTCLDY    13  10  88 NE6       29.97F WCI   4
ALLIANCE       PTCLDY    13  11  92 CALM      29.96F
CHADRON        CLEAR     14  10  84 SW6       29.96S WCI   5
SIDNEY         PTCLDY    18  13  80 W7        29.99F WCI   9
$$

NEZ057>060-069>072-079>082-200900-
SOUTHWEST NEBRASKA

CITY           SKY/WX    TMP DP  RH WIND       PRES   REMARKS
NORTH PLATTE   CLEAR     19  17  92 NW5       30.02S FOG     WCI  12
IMPERIAL       PTCLDY    27  19  72 W7        30.02S WCI  19
MCCOOK         CLEAR     25  22  88 W7        30.03F WCI  17
$$

NEZ005>010-023>029-035>040-094-200900-
NORTH CENTRAL NEBRASKA

CITY           SKY/WX    TMP DP  RH WIND       PRES   REMARKS
VALENTINE      CLEAR     14  12  92 SW7       29.98S WCI   4
AINSWORTH      CLEAR     20  17  88 W8        29.97S WCI  10
BROKEN BOW     CLEAR     24  20  84 SW5       30.00S WCI  18
$$

NEZ041-046>049-061>064-073>077-083>087-200900-
SOUTH CENTRAL NEBRASKA

CITY           SKY/WX    TMP DP  RH WIND       PRES   REMARKS
GRAND ISLAND   FOG       31  31 100 SW3       30.05R VSB 3/4
AURORA         FOG       32  32 100 S3        30.05S VSB 3/4
HASTINGS       FOG       29  28  96 SW3       30.03S VSB 1/4
HEBRON         FOG       32  31  95 S8        30.06F VSB 1/2 WCI  25
KEARNEY *      CLEAR     19  18  93 CALM      30.02S
$$

NEZ011>018-030>034-042>045-200900-
NORTHEAST NEBRASKA

CITY           SKY/WX    TMP DP  RH WIND       PRES   REMARKS
NORFOLK        CLOUDY    33  32  96 S7        30.05S FOG     WCI  27
COLUMBUS *     CLOUDY    32  28  86 S7        30.08S WCI  26
TEKAMAH        CLOUDY    32  30  92 SE12      30.11F FOG     WCI  23
$$

NEZ050>053-065>068-078-088>093-200900-
SOUTHEAST NEBRASKA

CITY           SKY/WX    TMP DP  RH WIND       PRES   REMARKS
LINCOLN        CLOUDY    33  30  88 SE8       30.10F WCI  26
OMAHA EPPLEY   FRZ DRZL  31  30  96 S13       30.14S FOG     WCI  21
FALLS CITY     CLOUDY    31  28  89 SE10      30.15F WCI  22
NEBRASKA CITY  CLOUDY    31  31 100 SE8       30.13S FOG     WCI  23
$$

NEZ044-045-051>053-067-200900-
OMAHA AREA

CITY           SKY/WX    TMP DP  RH WIND       PRES   REMARKS
OMAHA EPPLEY   FRZ DRZL  31  30  96 S13       30.14S FOG     WCI  21
OFFUTT AFB     CLOUDY    31  29  96 SE9       30.12F FOG     WCI  22
WAHOO          CLOUDY    32  30  93 S10       30.10S FOG     WCI  24
$$



USA.gov is the U.S. government's official web portal to all federal, state and local government web resources and services.